Location: B?dimalle
(17.1788°N, 80.5377°E)
Time: 12:35:16
(UTC+00:00)

Courier 1B Rocket - Pass Details

Date: 15 December 2025
Orbit: 920 x 1201 km, 28.2° (Epoch: 25 January)

Event Time Altitude Azimuth Distance (km) Brightness Sun altitude
Rises 14:15:09 0° 245° (WSW) 4,050 9.4 -29.6°
Reaches altitude 10° 14:17:57 10° 245° (WSW) 3,106 8.5 -30.3°
Maximum altitude 14:25:47 89° 159° (SSE) 1,199 5.3 -32.1°
Enters shadow 14:25:58 86° 74° (ENE) 1,201 5.2 -32.1°
